This is the latest recevied weather packets stored in our database for station/object HG5PBP-13. If no packets are shown the sender has not sent any weather packets the latest 1 day(s).
| Time | Temp. | Humidity | Pressure | Rain* | Wind** | Luminosity | Snow |
|---|---|---|---|---|---|---|---|
| 1777995557 | 22.22° C | 3% | - | 0 mm | 2.68 m/s, 213° | - | - |
| 1777995257 | 22.22° C | 3% | - | 0 mm | 2.24 m/s, 248° | - | - |
| 1777994957 | 22.22° C | 3% | - | 0 mm | 4.47 m/s, 164° | - | - |
| 1777994657 | 22.78° C | 3% | - | 0 mm | 2.68 m/s, 206° | - | - |
| 1777994357 | 22.22° C | 3% | - | 0 mm | 4.92 m/s, 183° | - | - |
| 1777994057 | 22.78° C | 3% | - | 0 mm | 3.58 m/s, 149° | - | - |
| 1777993757 | 22.78° C | 3% | - | 0 mm | 3.13 m/s, 202° | - | - |
| 1777993457 | 22.22° C | 3% | - | 0 mm | 1.34 m/s, 180° | - | - |
| 1777993157 | 22.22° C | 3% | - | 0 mm | 1.79 m/s, 160° | - | - |
| 1777992857 | 22.22° C | 3% | - | 0 mm | 4.02 m/s, 210° | - | - |
| 1777992557 | 22.22° C | 3% | - | 0 mm | 1.34 m/s, 186° | - | - |
| 1777992257 | 22.78° C | 3% | - | 0 mm | 2.68 m/s, 158° | - | - |
| 1777991957 | 22.78° C | 3% | - | 0 mm | 2.24 m/s, 240° | - | - |
| 1777991657 | 22.78° C | 3% | - | 0 mm | 2.68 m/s, 206° | - | - |
| 1777991357 | 23.33° C | 3% | - | 0 mm | 1.34 m/s, 265° | - | - |
| 1777991057 | 23.33° C | 3% | - | 0 mm | 2.68 m/s, 212° | - | - |
| 1777990757 | 22.78° C | 3% | - | 0 mm | 2.24 m/s, 138° | - | - |
| 1777990457 | 22.78° C | 3% | - | 0 mm | 4.47 m/s, 249° | - | - |
| 1777990157 | 22.78° C | 3% | - | 0 mm | 4.47 m/s, 189° | - | - |
| 1777989857 | 22.78° C | 3% | - | 0 mm | 5.36 m/s, 189° | - | - |
| 1777989557 | 22.78° C | 3% | - | 0 mm | 5.36 m/s, 133° | - | - |
| 1777989257 | 22.22° C | 3% | - | 0 mm | 2.68 m/s, 166° | - | - |
| 1777988957 | 22.22° C | 3% | - | 0 mm | 2.24 m/s, 152° | - | - |
| 1777988657 | 22.22° C | 3% | - | 0 mm | 2.68 m/s, 188° | - | - |
| 1777988357 | 22.22° C | 3% | - | 0 mm | 3.13 m/s, 162° | - | - |
* Rain latest hour (hover to see other rain measurements)
** Current wind speed in m/s (hover to see current wind gust speed)